Wind_Speed
42 44 49 51 49 38 36 30 29 26 22 17 12 11 10 3 6 8 15 16 13 16 12 17 17 23 23 23 21 21 20 19 17 15 15 15 13 11 12 15 16 15 17 18
42 41 47 49 50 41 41 36 35 29 23 20 13 11 10 6 3 6 10 17 17 17 16 16 19 24 22 23 19 19 17 17 16 14 14 12 11 11 11 12 13 14 15 15
40 39 42 45 51 49 46 43 39 32 28 22 15 13 11 14 6 5 7 14 17 16 19 21 24 21 22 22 19 18 16 16 13 11 11 11 10 9 9 8 10 9 10 11
42 41 41 40 44 52 52 50 43 35 32 26 18 15 13 12 10 7 7 13 16 18 21 26 29 24 25 21 18 16 16 15 14 11 10 8 6 6 6 7 9 9 9 10
43 37 36 37 39 43 54 51 44 37 34 27 26 23 20 17 15 8 7 12 17 21 26 26 22 20 23 19 21 19 19 16 13 10 7 6 4 2 0 4 7 10 10 11
41 39 28 33 33 39 47 53 49 41 37 30 37 32 27 24 21 14 15 15 18 20 22 28 27 25 27 24 21 20 17 13 12 12 9 7 6 3 2 4 5 8 11 12
43 39 37 38 34 33 40 49 52 46 41 45 46 34 35 25 25 19 18 19 18 18 21 25 26 25 23 25 24 22 20 15 14 15 15 12 9 8 7 7 8 10 11 12
52 49 44 40 38 38 35 38 44 52 51 49 40 39 39 30 25 24 20 21 21 21 24 26 26 29 26 25 26 24 22 19 19 19 18 16 14 12 13 11 9 10 13 15
57 49 47 43 44 39 33 25 43 49 54 46 42 51 39 33 30 26 26 23 26 24 25 28 27 28 28 26 26 24 24 23 22 20 19 17 16 15 16 17 14 13 14 17
60 57 55 54 48 39 35 35 30 29 46 54 52 53 49 41 36 33 28 29 28 27 26 27 29 29 29 29 27 26 24 24 22 20 18 17 18 17 18 20 20 18 16 17
67 62 59 58 47 42 38 32 28 29 31 42 55 58 54 46 42 38 35 32 31 28 28 25 25 27 28 27 29 28 27 26 24 23 22 21 20 19 21 23 23 25 25 23
72 68 63 61 57 53 48 41 35 32 32 37 45 57 58 49 46 42 39 36 33 32 30 28 29 29 29 32 34 35 31 31 29 27 26 25 26 23 27 25 26 26 27 29
78 73 69 67 62 57 49 45 38 39 38 31 30 33 42 53 50 47 45 43 39 36 35 33 30 32 33 34 34 34 34 35 34 34 34 32 32 33 25 25 28 30 30 31
83 79 74 70 67 61 54 48 45 42 41 35 28 32 30 32 55 54 51 50 48 45 43 39 38 38 38 39 39 39 38 38 36 35 35 36 34 32 35 38 34 33 37 39
89 84 79 74 72 66 58 54 49 45 45 37 39 34 34 32 41 55 55 55 53 50 49 49 47 44 42 43 43 42 41 39 37 35 36 39 37 37 39 44 42 43 43 44
93 89 83 76 74 73 64 59 54 49 47 44 43 39 40 38 29 37 40 47 54 56 54 52 52 51 51 50 49 49 47 46 44 44 44 45 46 45 45 47 49 49 49 50
98 93 88 81 78 75 69 59 58 54 53 49 44 47 50 47 36 34 36 36 39 48 55 58 57 56 54 52 52 51 51 51 51 52 52 53 54 53 52 53 55 58 58 57
98 98 95 88 84 80 69 66 63 58 57 51 48 48 51 52 44 34 34 32 29 30 31 33 37 43 48 50 49 52 56 57 57 57 57 58 58 58 59 59 61 63 62 63
102 100 99 95 88 80 77 73 68 65 62 56 52 49 50 52 49 37 35 36 39 38 37 37 35 33 34 38 38 36 40 46 48 49 52 54 54 55 56 59 64 67 68 70
104 102 100 97 91 85 79 80 76 71 66 63 60 55 52 53 48 47 48 45 43 43 41 40 38 33 35 40 38 37 36 36 40 43 45 46 48 50 50 54 56 57 57 57
101 100 99 99 95 89 83 83 77 75 70 70 66 63 58 54 52 56 54 50 46 43 42 43 42 41 41 38 38 39 36 35 38 39 40 40 43 46 47 48 47 46 46 47
100 96 96 99 97 92 88 86 81 78 76 74 74 70 67 61 60 60 60 57 52 49 47 44 43 43 42 40 41 40 38 41 40 42 42 44 46 47 49 50 49 50 44 37
96 96 97 94 92 95 96 92 86 85 83 80 76 74 73 70 68 66 66 63 61 57 56 53 51 50 51 49 46 43 44 44 46 47 47 49 50 51 49 52 52 52 47 38
95 95 92 94 92 96 99 97 95 90 87 84 80 77 75 73 73 71 69 66 65 64 60 58 56 54 54 55 54 52 51 52 53 53 52 52 54 55 56 56 56 55 52 47
101 96 94 90 93 96 99 103 98 95 93 89 87 83 79 77 76 74 72 71 69 69 66 65 61 59 60 60 58 58 57 56 55 57 59 58 58 60 60 59 61 61 55 54
104 107 100 93 96 93 100 98 99 95 93 93 92 87 82 81 79 77 76 75 74 72 70 70 68 65 65 67 68 66 64 62 60 60 61 64 65 63 61 62 63 63 58 60
Wind_Direction
262 254 248 246 248 243 250 243 246 248 253 253 252 262 269 345 309 239 223 224 227 224 223 190 182 179 180 171 162 150 147 140 129 118 112 112 112 104 96 91 85 77 68 65
262 262 253 249 247 240 241 240 239 241 243 246 245 262 247 257 223 272 239 234 231 217 202 178 183 178 181 172 168 153 151 141 134 129 119 110 105 100 86 76 76 69 68 62
265 263 254 245 240 237 234 233 235 233 235 239 234 243 243 248 228 239 222 210 196 197 183 167 182 186 179 174 172 161 155 146 147 136 121 117 103 88 82 77 70 57 51 47
259 258 258 251 240 237 233 231 231 230 234 234 231 234 234 229 215 202 214 197 186 186 167 169 180 186 177 180 176 172 164 161 163 152 140 131 113 85 71 54 53 46 36 38
241 257 255 251 244 237 236 235 232 232 236 233 237 221 225 219 204 182 197 185 175 177 165 175 187 186 186 182 184 188 180 173 171 171 166 152 139 148 356 37 43 30 31 30
233 241 230 242 241 236 233 230 229 223 227 229 232 227 224 213 207 199 186 179 170 178 173 179 190 192 194 197 193 198 194 197 196 193 202 215 215 231 308 333 6 21 15 15
220 229 222 235 241 235 231 231 227 222 218 224 227 224 228 213 215 213 215 202 193 186 192 193 197 201 208 211 209 207 212 217 229 230 221 230 250 272 281 310 335 348 351 352
222 223 223 222 230 226 230 232 228 224 221 224 230 233 226 221 215 211 211 212 208 198 194 202 204 211 213 214 219 220 223 229 233 233 238 236 240 260 279 288 306 325 333 339
223 222 229 225 230 234 227 222 226 224 226 221 224 236 230 223 216 215 213 208 218 210 202 206 209 211 216 219 218 227 226 231 236 242 240 239 246 255 266 280 291 305 315 320
222 224 226 229 229 237 229 219 224 223 225 220 219 232 228 221 216 214 213 212 213 220 216 211 215 214 217 220 221 226 231 237 242 243 249 252 251 257 266 274 282 284 291 299
226 223 227 231 228 230 229 220 206 204 217 219 219 227 229 223 219 219 216 216 216 215 219 224 225 225 224 223 230 232 235 242 245 245 248 255 259 265 270 276 284 287 288 292
227 224 225 227 227 223 221 220 210 203 212 214 218 224 229 223 222 221 225 225 221 220 219 218 226 228 230 229 231 233 236 243 249 256 260 266 266 271 274 274 278 281 287 291
225 224 223 224 225 225 223 221 211 197 202 210 208 216 224 225 222 225 224 224 224 228 226 222 222 230 233 233 236 240 242 246 250 253 258 259 265 269 268 274 273 277 282 286
226 224 224 224 223 222 220 219 214 201 200 204 211 222 211 213 217 221 225 226 226 223 224 226 226 224 228 233 236 239 245 248 250 253 258 255 256 256 267 278 275 276 279 281
226 224 224 224 225 222 218 217 213 204 202 202 208 223 231 212 209 217 223 227 229 228 228 229 229 231 235 238 240 243 245 249 250 251 259 261 264 257 262 269 274 278 282 286
223 225 224 223 224 222 218 215 213 208 204 203 210 220 230 232 206 207 214 221 228 232 234 233 233 235 237 239 242 244 245 249 253 257 258 260 262 262 266 271 277 279 279 282
222 223 224 223 221 221 217 216 215 210 210 208 208 213 222 237 224 207 213 207 217 229 235 237 238 239 241 244 247 250 252 254 256 257 260 262 264 267 269 271 274 277 280 283
221 223 223 222 222 220 219 221 216 210 210 209 210 213 222 230 237 227 213 213 218 224 229 236 236 240 245 249 252 255 257 258 259 262 264 266 268 270 271 271 274 277 280 284
221 221 222 223 223 219 218 221 219 214 208 211 210 213 220 228 235 231 231 223 222 226 232 234 237 239 246 247 247 251 257 262 266 268 268 270 274 275 276 277 277 279 281 283
221 220 220 222 222 220 219 220 220 217 210 211 211 213 219 228 235 236 236 232 231 231 232 234 237 241 245 249 252 258 264 270 276 279 282 282 283 283 283 282 282 284 286 286
221 220 218 220 220 220 219 222 220 219 213 214 213 215 218 220 224 231 234 232 233 237 237 238 239 237 239 247 255 261 266 268 271 282 285 285 284 283 284 286 289 288 288 291
223 221 220 219 218 219 220 222 221 219 217 218 216 216 218 220 223 228 235 236 234 233 234 238 241 240 240 243 250 260 264 266 273 275 280 284 287 284 282 284 286 287 294 284
224 223 219 220 218 218 220 221 221 221 220 220 220 219 220 222 226 229 233 238 241 237 239 238 240 241 247 250 254 258 264 270 272 276 280 283 286 284 283 283 283 286 289 283
225 224 222 219 218 218 219 222 221 221 222 223 223 222 221 223 226 230 233 237 239 244 245 244 247 248 248 251 254 257 260 267 272 276 276 279 284 287 291 290 289 287 289 287
223 224 223 220 217 217 218 219 220 219 221 223 225 226 225 227 229 231 233 236 239 242 246 247 247 248 251 253 256 258 260 266 269 274 276 276 280 283 285 285 285 287 290 285
222 224 224 222 219 216 217 217 218 220 222 225 226 227 230 233 234 236 237 238 239 241 243 246 249 250 253 257 259 259 262 264 267 270 274 277 278 282 280 281 283 284 283 284
Height
10905 10908 10907 10912 10917 10928 10932 10933 10933 10936 10938 10942 10944 10943 10944 10943 10943 10945 10947 10948 10951 10953 10955 10957 10960 10964 10968 10971 10974 10976 10978 10980 10982 10983 10984 10986 10988 10989 10990 10990 10989 10988 10987 10987
10892 10895 10897 10904 10909 10920 10924 10925 10924 10930 10934 10936 10939 10940 10941 10941 10942 10942 10943 10944 10947 10950 10952 10955 10959 10963 10968 10971 10975 10977 10979 10981 10982 10983 10984 10986 10987 10988 10989 10989 10989 10989 10988 10988
10879 10884 10884 10889 10896 10905 10910 10912 10916 10925 10929 10931 10934 10936 10937 10939 10938 10939 10940 10941 10944 10947 10949 10952 10959 10965 10969 10971 10975 10977 10979 10981 10982 10983 10984 10986 10987 10987 10988 10990 10990 10990 10990 10989
10869 10872 10873 10878 10884 10891 10899 10900 10910 10918 10922 10927 10930 10932 10933 10935 10936 10936 10937 10938 10941 10945 10947 10951 10957 10963 10967 10971 10975 10978 10980 10981 10982 10982 10983 10985 10986 10986 10988 10990 10990 10990 10989 10988
10856 10864 10866 10867 10872 10882 10885 10896 10903 10912 10916 10922 10923 10925 10928 10930 10934 10935 10936 10938 10939 10943 10944 10951 10958 10962 10966 10969 10973 10976 10978 10980 10982 10983 10983 10984 10985 10987 10988 10989 10989 10989 10989 10988
10849 10854 10860 10856 10864 10868 10876 10885 10894 10904 10910 10918 10913 10917 10921 10925 10931 10934 10935 10938 10939 10944 10946 10949 10955 10959 10963 10967 10970 10973 10976 10979 10981 10982 10983 10984 10984 10985 10986 10987 10987 10987 10986 10985
10839 10843 10848 10851 10857 10861 10866 10871 10884 10895 10903 10895 10901 10914 10914 10923 10926 10931 10935 10937 10939 10942 10946 10949 10953 10956 10960 10964 10968 10970 10973 10976 10979 10981 10981 10983 10984 10983 10983 10984 10984 10984 10984 10984
10825 10830 10839 10842 10845 10849 10858 10865 10875 10881 10886 10889 10903 10905 10909 10916 10922 10926 10930 10934 10937 10938 10942 10947 10951 10955 10958 10961 10965 10968 10971 10974 10976 10977 10979 10980 10981 10982 10981 10981 10980 10981 10981 10982
10811 10822 10826 10834 10835 10845 10852 10860 10854 10869 10877 10889 10895 10885 10903 10911 10916 10920 10924 10928 10932 10934 10936 10942 10946 10948 10953 10956 10960 10964 10967 10969 10971 10973 10974 10975 10976 10978 10978 10977 10978 10978 10979 10979
10800 10809 10813 10816 10827 10838 10846 10848 10856 10863 10866 10874 10880 10878 10888 10900 10907 10912 10917 10920 10925 10931 10933 10936 10940 10943 10946 10951 10956 10959 10962 10964 10966 10967 10968 10970 10972 10973 10974 10973 10975 10974 10974 10975
10784 10795 10800 10804 10822 10828 10835 10844 10850 10853 10857 10862 10870 10871 10876 10890 10898 10904 10908 10913 10919 10924 10929 10932 10936 10940 10943 10947 10951 10954 10957 10959 10962 10963 10964 10965 10967 10968 10970 10970 10970 10971 10969 10969
10765 10778 10786 10795 10803 10811 10820 10831 10841 10848 10851 10851 10857 10861 10868 10881 10891 10897 10902 10908 10913 10917 10921 10925 10930 10934 10937 10939 10942 10945 10949 10951 10954 10957 10958 10960 10961 10962 10964 10964 10963 10964 10964 10963
10745 10760 10767 10776 10789 10801 10815 10822 10832 10838 10842 10850 10854 10855 10860 10873 10885 10890 10896 10899 10905 10911 10915 10920 10925 10929 10931 10933 10934 10938 10941 10942 10946 10949 10950 10952 10953 10954 10955 10956 10956 10956 10957 10956
10725 10739 10752 10765 10776 10785 10801 10811 10821 10830 10837 10844 10849 10847 10853 10858 10870 10878 10883 10888 10893 10898 10903 10909 10914 10918 10921 10923 10926 10929 10932 10935 10939 10941 10942 10942 10941 10944 10946 10947 10947 10949 10948 10948
10701 10719 10734 10748 10758 10773 10787 10798 10810 10821 10831 10840 10840 10842 10844 10851 10858 10866 10873 10878 10883 10889 10895 10900 10905 10909 10912 10915 10917 10919 10922 10925 10928 10931 10932 10931 10932 10935 10937 10936 10938 10939 10939 10938
10682 10697 10715 10731 10742 10756 10771 10785 10799 10811 10821 10830 10832 10838 10835 10840 10850 10856 10860 10867 10872 10877 10882 10887 10892 10896 10899 10903 10906 10908 10913 10915 10919 10920 10921 10921 10922 10925 10927 10928 10928 10928 10927 10927
10662 10678 10695 10713 10726 10739 10757 10776 10786 10798 10806 10815 10825 10829 10827 10829 10842 10846 10849 10856 10860 10864 10869 10875 10879 10883 10887 10890 10893 10897 10901 10905 10906 10907 10910 10911 10911 10914 10918 10918 10918 10915 10916 10916
10643 10658 10673 10691 10706 10721 10752 10756 10770 10783 10795 10806 10814 10819 10820 10822 10829 10839 10844 10847 10851 10855 10859 10862 10866 10869 10874 10878 10883 10885 10888 10890 10894 10897 10900 10900 10902 10904 10905 10906 10905 10904 10907 10904
10616 10635 10653 10669 10690 10716 10730 10741 10755 10768 10782 10793 10803 10809 10813 10813 10819 10832 10837 10840 10840 10843 10847 10852 10857 10862 10864 10868 10871 10875 10877 10879 10880 10883 10886 10887 10888 10891 10891 10890 10891 10892 10896 10895
10592 10611 10632 10654 10676 10695 10715 10721 10735 10751 10769 10779 10787 10794 10801 10805 10815 10820 10822 10828 10834 10836 10839 10842 10847 10853 10857 10856 10862 10866 10868 10871 10870 10870 10872 10876 10876 10877 10877 10876 10878 10881 10883 10881
10572 10591 10616 10632 10654 10677 10695 10705 10722 10737 10756 10759 10770 10779 10786 10795 10801 10799 10804 10814 10822 10829 10832 10835 10839 10844 10847 10850 10852 10854 10858 10860 10859 10861 10862 10863 10864 10866 10867 10867 10867 10868 10866 10863
10553 10576 10597 10612 10635 10657 10679 10688 10704 10719 10732 10742 10752 10762 10772 10779 10784 10788 10789 10798 10810 10815 10821 10828 10833 10836 10838 10842 10845 10844 10846 10844 10848 10848 10849 10849 10850 10851 10853 10855 10855 10852 10851 10850
10538 10556 10571 10596 10623 10641 10654 10669 10687 10698 10709 10722 10734 10746 10757 10766 10770 10776 10781 10788 10794 10803 10809 10815 10820 10825 10828 10831 10833 10835 10834 10836 10836 10837 10836 10835 10836 10837 10839 10838 10840 10840 10842 10843
10519 10530 10556 10573 10599 10620 10632 10647 10664 10680 10693 10706 10720 10729 10740 10748 10754 10761 10770 10777 10782 10787 10794 10801 10807 10811 10814 10817 10820 10822 10824 10824 10824 10826 10826 10826 10824 10823 10824 10824 10826 10828 10828 10827
10491 10512 10531 10556 10578 10591 10606 10621 10637 10659 10673 10688 10701 10711 10723 10732 10739 10748 10757 10763 10771 10775 10778 10783 10790 10796 10799 10802 10805 10807 10810 10810 10812 10812 10812 10812 10811 10811 10811 10810 10809 10810 10810 10809
10473 10483 10509 10538 10542 10566 10583 10604 10625 10644 10660 10671 10680 10696 10707 10714 10723 10733 10740 10747 10753 10759 10764 10767 10772 10779 10782 10784 10786 10790 10793 10795 10796 10797 10796 10797 10796 10796 10796 10795 10796 10796 10796 10791